Video & TV

Lees voor het posten de FAQ.

Als je iets zoekt op het forum kun je de zoekmachine raadplegen.

Onderwerp Replies Naam starter Datum
Sticky [TIP] Testbeeld voor Televisie 0 Neovo Geesink 29-11-2010 14:55:10
Sticky [TIP] Software uploaden in Sony TV 0 Evarist 01-07-2005 13:16:54
Sticky [TIPS] TV herstellers opgelet! 6 Evarist 11-07-2004 18:52:33
Panasonic FS200 SVHS VCR 16 check99 05-08-2020 19:59:20
Samsung UE40F7000 loopt vast na vele menu-commando's 9 Beeldbuisje 05-08-2020 19:48:24
schema Lenco tv TFT1305 8 STEFF 05-08-2020 19:44:51
eprom overzetten Samsung C6700 naar C6200 23 Bart64 05-08-2020 17:25:54
samsung ue40c6700us gekleurde verticale strepen. 12 brains 05-08-2020 16:18:05
Philips lcd 32PF5331/12 7 JimA 05-08-2020 15:06:12
Video JVC HR-D880EH Video JVC HR-D880EH 1 2 3 laatste 52 Thunderace 04-08-2020 18:05:46
Lencotv 4 STEFF 04-08-2020 11:41:00
samsung tv ue40D5700 6 STEFF 03-08-2020 19:01:36
T-con Samsung LE46 2 paolo_55 02-08-2020 19:28:16
tv/monitor dell type w3706 beeld probleem 22 gerard1 02-08-2020 14:27:18
sony bravia rode led 6x knipper 12 BenI2C 01-08-2020 20:49:49
Philips 47PFL4606 No Power Philips 47PFL4606 No Power 1 2 laatste 37 ejlvb81 01-08-2020 20:37:43
Defecte voeding Samsung UE46ES6100 20 jama 31-07-2020 19:13:46
Philips 42PFL6007H/12 valt uit 6 Japster 31-07-2020 10:24:22
firmware aanpassen van Samsung tv moederbord UA-C6200 17 Bart64 30-07-2020 18:28:55
Pioneer KRP-M01 8 Blue Blinks 14 ejlvb81 28-07-2020 18:45:50
Philips beeld verkleurd 16 knutselaar0 28-07-2020 18:44:49
Philips - geen backlight 19 Bram_1234 27-07-2020 03:53:07
Diverse typen LCD's uitwisselen, kan dat? 5 Beeldbuisje 24-07-2020 18:57:06
Waarom gaan LCD's in bepaalde tv's merkelijk meer kapot? 18 Beeldbuisje 24-07-2020 18:40:41
Philips 40PFL9705 T-con 14 ejlvb81 24-07-2020 18:36:37
32pfl3017H/12 32pfl3017H/12 1 2 3 laatste 55 Dreke 23-07-2020 17:57:26
Philips 47PFL9664H/12 Q549.6E Geen Backlight 1 ejlvb81 22-07-2020 19:01:31
LG 60uj634v UHD led tv blijf donker 10 frans66 22-07-2020 18:53:45
LED Backlight 4 Bertvangompel 21-07-2020 18:38:30
Philips 55PFL8007K/12 QFU1.!E 4 ejlvb81 21-07-2020 11:05:36
philips led tv wel ambilight en geluid geen beeld 15 mizko73 20-07-2020 21:06:38
Oude Indesit TV aansluiten op analoge kabel Oude Indesit TV aansluiten op analoge kabel 1 2 3 4 5 laatste 109 SantiOriginal 20-07-2020 17:57:08
Heel bizar voeding BN44-00428B 12 Sander1972 19-07-2020 19:11:11
Philips 43PUS6101/12 15 ejlvb81 16-07-2020 22:27:47
Samsung tv BP23E0 solarized beeld 3 elco boy 16-07-2020 18:56:16
Samsung blu-ray speler(s) spelen enkel DVD's af 9 hobby luke 16-07-2020 16:02:33
Philips 42PFL7406 No Power 7 ejlvb81 13-07-2020 19:00:04
Probleem beeld Samsung TV 8 Mike_Bumble 13-07-2020 16:59:18
Samsung LE37C630K1W start niet 10 Waldpiek 12-07-2020 19:01:50
Philips 55pfl8008k/12 Philips 55pfl8008k/12 1 2 laatste 38 Chrlok 12-07-2020 13:44:55
tcon board samsung UE55H8000 24 toots 12-07-2020 10:22:34
Herkennen van loopwerk in reclamespot van VHS vrijdag RTL7 18 smd 11-07-2020 21:44:23
UE43KU6000 Samsung 2 toi 11-07-2020 18:54:59
Philips TV 55OLED803/12 7 Robgeusens 11-07-2020 18:48:45
UE32J6200 krijgt geen bewegende beelden 8 Mahsjong 07-07-2020 11:50:16
TX-P50VT30 alleen nog witte vlekken 0 Beeldbuisje 06-07-2020 21:27:25
Samsung UE55D8000 YSXXN Led knipperd 12 Luuk Uiterwijk 06-07-2020 08:52:16
teletekst ondertitels spontaan aan 6 Kees frees 06-07-2020 00:05:07
LG 47LN5708 LED strips 2 Memorex 05-07-2020 21:18:58
Raspberry pi kit geschikt voor Netflix 15 mechatron 05-07-2020 11:48:15